CW4740 Weather Reports


Display with metric or nautical units.
time (UTC)temp
F
wind
direction
speed
MPH
gust
MPH
rain 1hr
in
rain 24hr
in
rain mn
in
humidity
%
barometer
mb
20260902194702 88 54 3.0 11.0 0.00 0.51 0.50 78 1014.1
20260902194140 88 77 4.0 12.0 0.00 0.51 0.50 80 1014.1
20260902193658 88 86 8.0 12.0 0.00 0.51 0.50 79 1014.2
20260902193215 88 80 5.0 10.0 0.00 0.51 0.50 79 1014.4
20260902192710 88 96 3.0 11.0 0.00 0.51 0.50 79 1014.4
20260902192227 88 109 7.0 12.0 0.00 0.51 0.50 78 1014.6
20260902191723 89 94 5.0 12.0 0.00 0.51 0.50 78 1014.7
20260902191139 89 74 5.0 13.0 0.00 0.51 0.50 77 1014.7
20260902190657 89 103 5.0 13.0 0.00 0.51 0.50 76 1014.7
20260902190134 89 89 5.0 10.0 0.00 0.73 0.50 78 1014.5
20260902185719 89 116 4.0 11.0 0.00 0.73 0.50 79 1014.7
20260902185133 88 91 7.0 11.0 0.00 0.73 0.50 79 1014.6
20260902184727 88 53 8.0 10.0 0.00 0.73 0.50 78 1014.7
20260902184202 88 111 6.0 11.0 0.00 0.73 0.50 79 1014.6
20260902183658 88 71 6.0 11.0 0.00 0.73 0.50 79 1014.7
20260902183135 88 107 7.0 10.0 0.00 0.73 0.50 78 1014.8
20260902182633 89 102 6.0 10.0 0.00 0.73 0.50 78 1014.9
20260902182251 89 94 4.0 10.0 0.00 0.73 0.50 78 1014.9
20260902181706 89 99 4.0 10.0 0.00 0.73 0.50 79 1014.9
20260902181142 89 101 6.0 10.0 0.00 0.73 0.50 80 1015.0
20260902180658 88 86 5.0 11.0 0.00 0.73 0.50 80 1015.2
20260902180249 88 111 6.0 11.0 0.00 0.73 0.50 79 1015.2
20260902175633 88 92 3.0 9.0 0.00 0.73 0.50 80 1015.2
20260902175210 88 80 4.0 9.0 0.00 0.73 0.50 79 1015.2
20260902174706 88 29 5.0 9.0 0.00 0.73 0.50 79 1015.2
20260902174142 89 119 4.0 9.0 0.00 0.73 0.50 78 1015.3
20260902173719 89 78 4.0 9.0 0.00 0.73 0.50 78 1015.4
20260902173637 89 78 4.0 9.0 0.00 0.73 0.50 78 1015.4
20260902173235 89 110 4.0 6.0 0.00 0.73 0.50 77 1015.5
20260902173132 89 110 4.0 6.0 0.00 0.73 0.50 77 1015.5
20260902172629 89 36 2.0 5.0 0.00 0.73 0.50 75 1015.5
20260902172208 89 326 2.0 5.0 0.00 0.73 0.50 76 1015.7
20260902171746 89 21 1.0 6.0 0.00 0.73 0.50 75 1015.7
20260902171240 89 344 3.0 6.0 0.00 0.73 0.50 75 1015.8
20260902170635 89 308 2.0 5.0 0.00 0.73 0.50 75 1015.8
20260902170250 88 12 3.0 5.0 0.00 0.73 0.50 77 1015.9
20260902165634 88 250 0.0 5.0 0.00 0.73 0.50 77 1016.1
20260902165248 88 250 2.0 5.0 0.00 0.73 0.50 78 1016.2
20260902164723 88 333 2.0 4.0 0.00 0.73 0.50 80 1016.2
20260902164640 88 333 2.0 4.0 0.00 0.73 0.50 80 1016.2
20260902164157 87 22 1.0 6.0 0.00 0.73 0.50 81 1016.2
20260902163635 87 5 1.0 6.0 0.00 0.73 0.50 80 1016.3
20260902163153 86 253 3.0 7.0 0.00 0.73 0.50 81 1016.4
20260902162749 86 115 1.0 3.0 0.00 0.73 0.50 84 1016.4
20260902162142 85 119 0.0 0.0 0.00 0.73 0.50 84 1016.3
20260902161638 85 120 0.0 0.0 0.00 0.73 0.50 85 1016.4
20260902161135 85 120 0.0 0.0 0.00 0.73 0.50 85 1016.4
20260902160733 85 120 0.0 0.0 0.00 0.73 0.50 86 1016.4
20260902160147 85 120 0.0 0.0 0.00 0.73 0.50 86 1016.4
20260902155637 85 120 0.0 2.0 0.00 0.73 0.50 87 1016.4
20260902155214 84 120 0.0 3.0 0.00 0.73 0.50 88 1016.4
20260902154750 84 120 2.0 3.0 0.00 0.73 0.50 88 1016.4
20260902154205 84 120 0.0 3.0 0.00 0.73 0.50 89 1016.4
20260902153701 84 120 1.0 2.0 0.00 0.73 0.50 90 1016.3
20260902153219 83 120 1.0 2.0 0.00 0.73 0.50 91 1016.5
20260902153137 83 120 1.0 2.0 0.00 0.73 0.50 91 1016.5
20260902152636 83 120 0.0 4.0 0.00 0.73 0.50 92 1016.5
20260902152216 83 120 1.0 3.0 0.00 0.73 0.50 92 1016.6
20260902151652 83 120 1.0 4.0 0.00 0.73 0.50 93 1016.6
20260902151129 82 120 1.0 2.0 0.00 0.73 0.50 93 1016.5
20260902150645 82 120 0.0 0.0 0.00 0.73 0.50 93 1016.5
20260902150142 82 120 0.0 0.0 0.00 0.74 0.50 94 1016.4
20260902145628 82 120 0.0 0.0 0.00 0.74 0.50 95 1016.3
20260902145144 82 120 0.0 0.0 0.00 0.74 0.50 95 1016.2
20260902144701 81 120 0.0 0.0 0.00 0.74 0.50 95 1016.2
20260902144137 81 120 0.0 0.0 0.00 0.74 0.50 96 1016.2
20260902143655 81 120 0.0 0.0 0.00 0.74 0.50 96 1016.3
20260902143130 81 120 0.0 0.0 0.00 0.74 0.50 96 1016.3
20260902142748 81 120 0.0 0.0 0.00 0.74 0.50 97 1016.3
20260902142706 81 120 0.0 0.0 0.00 0.74 0.50 97 1016.3
20260902142143 81 120 0.0 0.0 0.00 0.74 0.50 97 1016.3
20260902141721 81 120 0.0 0.0 0.00 0.74 0.50 97 1016.4
20260902141157 81 120 0.0 0.0 0.00 0.74 0.50 97 1016.2
20260902140654 81 120 0.0 0.0 0.00 0.74 0.50 97 1016.2
20260902140131 81 120 0.0 0.0 0.00 0.74 0.50 98 1016.2
20260902135737 80 120 0.0 0.0 0.00 0.74 0.50 98 1016.1
20260902135634 80 120 0.0 0.0 0.00 0.74 0.50 98 1016.1
20260902135133 80 120 0.0 2.0 0.00 0.74 0.50 98 1016.1
20260902134630 80 120 0.0 3.0 0.00 0.74 0.50 98 1016.1
20260902134146 80 120 1.0 2.0 0.00 0.74 0.50 98 1016.1
20260902133722 80 120 0.0 0.0 0.00 0.74 0.50 98 1016.1
20260902133640 80 120 0.0 0.0 0.00 0.74 0.50 98 1016.1
20260902133137 80 120 0.0 0.0 0.00 0.74 0.50 98 1015.9
20260902132655 80 120 0.0 0.0 0.00 0.74 0.50 98 1015.9
20260902132131 80 120 0.0 0.0 0.00 0.74 0.50 98 1015.8
20260902131743 80 120 0.0 0.0 0.00 0.74 0.50 98 1015.8
20260902131158 80 120 0.0 0.0 0.00 0.74 0.50 98 1015.7
20260902130638 80 120 0.0 0.0 0.00 0.74 0.50 98 1015.7
20260902130135 80 120 0.0 0.0 0.00 0.74 0.50 98 1015.8
20260902125643 80 120 0.0 0.0 0.00 0.74 0.50 98 1015.9
20260902125220 80 120 0.0 0.0 0.00 0.74 0.50 98 1015.9
20260902124634 79 120 0.0 0.0 0.00 0.74 0.50 98 1015.8
20260902124132 79 120 0.0 0.0 0.00 0.74 0.50 98 1015.7
20260902123651 79 120 0.0 0.0 0.00 0.74 0.50 98 1015.6
20260902123147 79 120 0.0 0.0 0.00 0.74 0.50 98 1015.6
20260902122645 79 120 0.0 0.0 0.00 0.74 0.50 98 1015.7
20260902122143 79 120 0.0 0.0 0.00 0.74 0.50 98 1015.5
20260902121701 79 119 0.0 0.0 0.00 0.74 0.50 98 1015.5
20260902121157 79 120 0.0 0.0 0.00 0.74 0.50 98 1015.6
20260902120634 79 120 0.0 0.0 0.00 0.74 0.50 98 1015.5
20260902120233 79 120 0.0 0.0 0.00 0.74 0.50 98 1015.6
20260902120129 79 120 0.0 0.0 0.00 0.74 0.50 98 1015.6
20260902115718 79 120 0.0 0.0 0.00 0.74 0.50 98 1015.5
20260902115134 79 120 0.0 0.0 0.00 0.74 0.50 98 1015.6
20260902114710 79 120 0.0 0.0 0.00 0.74 0.50 98 1015.6
20260902114144 78 119 0.0 0.0 0.00 0.74 0.50 98 1015.6
20260902113717 78 120 0.0 0.0 0.00 0.74 0.50 98 1015.6
20260902113136 78 120 0.0 0.0 0.00 0.74 0.50 98 1015.6
20260902112633 78 120 0.0 0.0 0.00 0.74 0.50 98 1015.6
20260902112150 78 120 0.0 0.0 0.00 0.74 0.50 98 1015.5
20260902111700 78 119 0.0 0.0 0.00 0.74 0.50 98 1015.4
20260902111156 78 120 0.0 0.0 0.00 0.74 0.50 98 1015.3
20260902110636 78 119 0.0 0.0 0.00 0.74 0.50 97 1015.2
20260902110132 78 120 0.0 0.0 0.00 0.74 0.50 97 1015.3
20260902105701 78 120 0.0 0.0 0.00 0.74 0.50 97 1015.2
20260902105135 78 120 0.0 0.0 0.00 0.74 0.50 97 1015.1
20260902104747 78 120 0.0 0.0 0.00 0.74 0.50 97 1015.1
20260902104141 78 119 0.0 0.0 0.00 0.74 0.50 97 1015.1
20260902103639 78 119 0.0 0.0 0.00 0.74 0.50 97 1015.0
20260902103141 78 119 0.0 0.0 0.00 0.74 0.50 97 1015.0
20260902102638 78 119 0.0 0.0 0.00 0.74 0.50 97 1015.0
20260902102216 78 119 0.0 0.0 0.00 0.74 0.50 97 1015.2
20260902101629 78 120 0.0 0.0 0.00 0.74 0.50 97 1015.2
20260902101223 78 120 0.0 0.0 0.00 0.74 0.50 97 1015.2
20260902101140 78 120 0.0 0.0 0.00 0.74 0.50 97 1015.2
20260902100638 78 119 0.0 0.0 0.00 0.74 0.50 97 1015.1
20260902100140 78 119 0.0 0.0 0.00 0.74 0.50 97 1015.1
20260902095725 78 119 0.0 0.0 0.00 0.74 0.50 97 1014.9
20260902095200 78 119 0.0 0.0 0.00 0.74 0.50 97 1014.8
20260902094716 78 119 0.0 0.0 0.00 0.74 0.50 97 1014.6
20260902094634 78 119 0.0 0.0 0.00 0.74 0.50 97 1014.6
20260902094212 78 120 0.0 0.0 0.00 0.74 0.50 97 1014.5
20260902093629 78 119 0.0 0.0 0.00 0.74 0.50 97 1014.5
20260902093207 78 120 0.0 0.0 0.00 0.74 0.50 97 1014.4
20260902092642 78 119 0.0 0.0 0.00 0.74 0.50 97 1014.3
20260902092138 78 120 0.0 0.0 0.00 0.74 0.50 97 1014.3
20260902091655 78 119 0.0 0.0 0.00 0.74 0.50 97 1014.4
20260902091130 78 119 0.0 0.0 0.00 0.74 0.50 97 1014.4
20260902090707 78 120 0.0 0.0 0.00 0.74 0.50 97 1014.3
20260902090242 78 119 0.0 0.0 0.00 0.74 0.50 97 1014.4
20260902085647 78 119 0.0 0.0 0.00 0.74 0.50 97 1014.5
20260902085204 78 119 0.0 0.0 0.00 0.74 0.50 97 1014.4
20260902084740 78 119 0.0 0.0 0.00 0.74 0.50 97 1014.4
20260902084213 78 119 0.0 0.0 0.00 0.74 0.50 97 1014.4
20260902083744 78 119 0.0 0.0 0.00 0.74 0.50 97 1014.4
20260902083702 78 119 0.0 0.0 0.00 0.74 0.50 97 1014.4
20260902083136 78 119 0.0 0.0 0.00 0.74 0.50 97 1014.5
20260902082638 78 120 0.0 0.0 0.00 0.74 0.50 97 1014.6
20260902082232 78 119 0.0 0.0 0.00 0.74 0.50 97 1014.5
20260902081707 78 119 0.0 0.0 0.00 0.74 0.50 97 1014.5
20260902081146 78 119 0.0 0.0 0.00 0.74 0.50 96 1014.5
20260902080642 78 119 0.0 0.0 0.00 0.74 0.50 97 1014.5
20260902080221 78 120 0.0 0.0 0.00 0.74 0.50 96 1014.5
20260902075643 79 120 0.0 0.0 0.00 0.74 0.50 96 1014.5
20260902075238 79 119 0.0 0.0 0.00 0.74 0.50 96 1014.5
20260902074631 79 119 0.0 0.0 0.00 0.74 0.50 96 1014.4
20260902074248 79 119 0.0 0.0 0.00 0.74 0.50 96 1014.5
20260902074144 79 119 0.0 0.0 0.00 0.74 0.50 96 1014.5
20260902073641 79 119 0.0 0.0 0.00 0.74 0.50 97 1014.5
20260902073158 79 119 0.0 0.0 0.01 0.74 0.50 96 1014.5
20260902072716 79 120 0.0 0.0 0.01 0.74 0.50 96 1014.5
20260902072634 79 120 0.0 0.0 0.01 0.74 0.50 96 1014.5
20260902072132 79 119 0.0 0.0 0.02 0.74 0.50 96 1014.5
20260902071650 78 119 0.0 0.0 0.02 0.74 0.50 96 1014.6
20260902071206 78 119 0.0 0.0 0.03 0.74 0.50 96 1014.5
20260902070744 78 120 0.0 0.0 0.05 0.74 0.50 96 1014.5
20260902070641 78 120 0.0 0.0 0.05 0.74 0.50 96 1014.5
20260902070200 78 120 0.0 0.0 0.07 0.74 0.50 96 1014.5
20260902065629 78 120 0.0 0.0 0.08 0.74 0.50 96 1014.7
20260902065228 78 120 0.0 0.0 0.10 0.74 0.50 96 1014.7
20260902064645 78 119 0.0 0.0 0.14 0.74 0.50 96 1014.7
20260902064243 78 119 0.0 0.0 0.20 0.74 0.50 95 1014.7
20260902063658 78 119 0.0 0.0 0.29 0.74 0.50 95 1014.8
20260902063135 78 119 0.0 0.0 0.36 0.73 0.49 95 1015.0
20260902062633 78 119 0.0 0.0 0.46 0.73 0.49 95 1015.0
20260902062212 78 119 0.0 0.0 0.48 0.72 0.48 95 1015.1
20260902061728 78 119 0.0 0.0 0.48 0.72 0.48 95 1015.0
20260902061203 78 119 0.0 0.0 0.47 0.71 0.47 95 1015.1
20260902060658 78 120 0.0 3.0 0.45 0.69 0.45 94 1015.1
20260902060215 78 119 1.0 6.0 0.43 0.67 0.43 94 1015.2
20260902055657 78 120 1.0 6.0 0.42 0.66 0.42 94 1015.2
20260902055154 79 93 3.0 7.0 0.40 0.64 0.40 93 1015.3
20260902054710 79 93 3.0 7.0 0.36 0.60 0.36 93 1015.3
20260902054145 79 93 1.0 4.0 0.30 0.54 0.30 93 1015.3
20260902053743 79 93 2.0 8.0 0.20 0.44 0.20 92 1015.3
20260902053700 79 93 2.0 8.0 0.20 0.44 0.20 92 1015.3
20260902053156 79 93 0.0 8.0 0.12 0.36 0.12 91 1015.3
20260902052634 80 118 4.0 7.0 0.02 0.26 0.02 91 1015.4
20260902052133 80 136 2.0 5.0 0.00 0.24 0.00 91 1015.4
20260902051631 81 136 3.0 5.0 0.00 0.24 0.00 91 1015.4
20260902051150 81 215 1.0 4.0 0.00 0.24 0.00 91 1015.4
20260902050727 81 207 3.0 5.0 0.00 0.24 0.00 91 1015.4
20260902050243 81 96 1.0 4.0 0.00 0.24 0.00 92 1015.3
20260902050140 81 96 1.0 4.0 0.00 0.24 0.00 92 1015.3
20260902045710 81 96 1.0 6.0 0.00 0.24 0.00 92 1015.4
20260902045225 81 96 2.0 3.0 0.00 0.24 0.00 92 1015.5
20260902045143 81 96 2.0 3.0 0.00 0.24 0.00 92 1015.5
20260902044719 81 96 0.0 0.0 0.00 0.24 0.00 92 1015.4
20260902044637 81 96 0.0 0.0 0.00 0.24 0.00 92 1015.4
20260902044213 81 96 0.0 0.0 0.00 0.24 0.00 92 1015.3
20260902043648 81 96 0.0 0.0 0.00 0.24 0.00 92 1015.5
20260902043205 81 96 0.0 0.0 0.00 0.24 0.00 91 1015.4
20260902042722 81 96 0.0 0.0 0.00 0.24 0.00 91 1015.4
20260902042138 81 96 0.0 0.0 0.00 0.24 0.00 91 1015.3
20260902041751 81 96 0.0 0.0 0.00 0.24 0.00 91 1015.5
20260902041129 81 96 0.0 0.0 0.00 0.24 0.00 91 1015.5
20260902040723 81 96 0.0 0.0 0.00 0.24 0.00 90 1015.4
20260902040155 81 96 0.0 0.0 0.00 0.34 0.24 90 1015.6
20260902035642 81 96 0.0 0.0 0.00 0.34 0.24 90 1015.7
20260902035220 81 96 0.0 0.0 0.00 0.34 0.24 90 1015.7
20260902034735 81 96 0.0 0.0 0.00 0.34 0.24 90 1015.7
20260902034652 81 96 0.0 0.0 0.00 0.34 0.24 90 1015.7
20260902034130 81 96 0.0 0.0 0.00 0.34 0.24 90 1015.6
20260902033648 81 96 0.0 0.0 0.00 0.34 0.24 90 1015.6
20260902033144 82 96 0.0 0.0 0.00 0.34 0.24 90 1015.9
20260902032639 82 96 0.0 0.0 0.00 0.34 0.24 90 1015.9
20260902032213 82 96 0.0 0.0 0.00 0.34 0.24 90 1015.8
20260902032131 82 96 0.0 0.0 0.00 0.34 0.24 90 1015.8
20260902031647 82 96 0.0 0.0 0.00 0.34 0.24 90 1015.8
20260902031142 81 96 0.0 0.0 0.00 0.34 0.24 90 1016.0
20260902030640 81 96 0.0 0.0 0.00 0.34 0.24 90 1016.1
20260902030217 81 96 0.0 0.0 0.00 1.02 0.24 90 1016.1
20260902025704 82 96 0.0 0.0 0.00 1.02 0.24 90 1016.1
20260902025241 81 96 0.0 0.0 0.00 1.02 0.24 90 1016.1
20260902024636 81 96 0.0 0.0 0.00 1.02 0.24 90 1016.0
20260902024213 82 96 0.0 0.0 0.00 1.02 0.24 89 1016.1
20260902023629 82 96 0.0 0.0 0.00 1.02 0.24 89 1016.2
20260902023247 82 96 0.0 0.0 0.00 1.02 0.24 89 1016.2
20260902022639 82 96 0.0 0.0 0.00 1.02 0.24 89 1016.1
20260902022217 82 96 0.0 0.0 0.00 1.02 0.24 89 1016.0
20260902021712 82 96 0.0 0.0 0.00 1.02 0.24 89 1015.9
20260902021630 82 96 0.0 0.0 0.00 1.02 0.24 89 1015.9
20260902021222 82 96 0.0 0.0 0.00 1.02 0.24 89 1016.0
20260902020715 82 96 0.0 0.0 0.00 1.02 0.24 88 1016.1
20260902020633 82 96 0.0 0.0 0.00 1.02 0.24 88 1016.1
20260902020211 82 96 0.0 0.0 0.00 1.06 0.24 88 1016.1
20260902015738 82 96 0.0 0.0 0.00 1.06 0.24 88 1016.1
20260902015213 82 96 0.0 0.0 0.00 1.06 0.24 88 1016.0
20260902014709 82 96 0.0 0.0 0.00 1.06 0.24 88 1016.1
20260902014146 82 96 0.0 0.0 0.00 1.06 0.24 88 1016.0
20260902013704 82 96 0.0 0.0 0.00 1.06 0.24 88 1015.8
20260902013159 82 96 0.0 0.0 0.00 1.06 0.24 88 1015.8
20260902012656 82 96 0.0 0.0 0.00 1.06 0.24 87 1015.8
20260902012152 82 96 0.0 0.0 0.00 1.06 0.24 87 1015.8
20260902011647 82 96 0.0 0.0 0.00 1.06 0.24 87 1015.7
20260902011204 82 96 0.0 0.0 0.00 1.06 0.24 87 1015.6
20260902010641 82 96 0.0 0.0 0.00 1.06 0.24 86 1015.4
20260902010138 83 96 0.0 0.0 0.00 1.06 0.24 86 1015.3
20260902005707 83 96 0.0 0.0 0.00 1.06 0.24 86 1015.4
20260902005203 83 96 0.0 0.0 0.00 1.06 0.24 86 1015.3
20260902004701 83 96 0.0 0.0 0.00 1.06 0.24 86 1015.2
20260902004138 83 96 0.0 0.0 0.00 1.06 0.24 85 1015.2
20260902003635 83 96 0.0 0.0 0.00 1.06 0.24 85 1015.2
20260902003213 83 96 0.0 0.0 0.00 1.06 0.24 85 1015.1
20260902003131 83 96 0.0 0.0 0.00 1.06 0.24 85 1015.1
20260902002629 83 96 0.0 0.0 0.00 1.06 0.24 85 1015.2
20260902002147 83 96 0.0 0.0 0.00 1.06 0.24 84 1015.1
20260902001726 83 96 0.0 0.0 0.00 1.06 0.24 84 1015.2
20260902001158 83 96 0.0 0.0 0.00 1.06 0.24 84 1015.3
20260902000715 84 96 0.0 0.0 0.00 1.06 0.24 84 1015.4
20260902000150 84 96 0.0 0.0 0.00 1.06 0.24 83 1015.5
20260901235634 84 96 0.0 0.0 0.00 1.06 0.24 84 1015.6
20260901235151 84 96 0.0 0.0 0.00 1.06 0.24 83 1015.7
20260901234648 84 96 0.0 0.0 0.00 1.06 0.24 83 1015.8
20260901234205 84 96 0.0 0.0 0.00 1.06 0.24 83 1015.7
20260901233641 84 96 0.0 3.0 0.00 1.06 0.24 83 1015.8
20260901233159 84 96 0.0 3.0 0.00 1.06 0.24 83 1015.7
20260901232635 85 96 1.0 3.0 0.00 1.06 0.24 82 1015.5
20260901232132 85 96 0.0 4.0 0.00 1.06 0.24 83 1015.3
20260901231708 85 96 1.0 4.0 0.00 1.06 0.24 83 1015.3
20260901231223 85 49 2.0 5.0 0.00 1.06 0.24 82 1015.2
20260901231141 85 49 2.0 5.0 0.00 1.06 0.24 82 1015.2
20260901230657 85 45 1.0 5.0 0.00 1.06 0.24 82 1015.2
20260901230215 85 12 2.0 5.0 0.00 1.06 0.24 82 1015.2
20260901225737 85 51 1.0 5.0 0.00 1.06 0.24 82 1015.2
20260901225136 85 12 0.0 5.0 0.00 1.06 0.24 82 1015.2
20260901224634 85 13 3.0 6.0 0.00 1.06 0.24 81 1015.0
20260901224248 86 15 3.0 6.0 0.00 1.06 0.24 81 1015.1
20260901223722 86 355 3.0 6.0 0.00 1.06 0.24 81 1015.1
20260901223158 86 76 3.0 6.0 0.00 1.06 0.24 81 1015.1
20260901222653 86 19 3.0 7.0 0.00 1.06 0.24 81 1015.0
20260901222129 86 360 3.0 6.0 0.00 1.06 0.24 82 1015.1
20260901221726 86 104 4.0 6.0 0.00 1.06 0.24 81 1015.0
20260901221221 86 25 4.0 6.0 0.00 1.06 0.24 81 1015.0
20260901220717 86 120 1.0 4.0 0.00 1.06 0.24 82 1015.2
20260901220213 86 120 2.0 6.0 0.00 1.06 0.24 81 1015.2
20260901220131 86 120 2.0 6.0 0.00 1.06 0.24 81 1015.2
20260901215640 86 120 3.0 6.0 0.00 1.06 0.24 81 1015.3
20260901215138 86 121 2.0 8.0 0.00 1.06 0.24 82 1015.2
20260901214736 86 120 4.0 8.0 0.00 1.06 0.24 82 1015.3
20260901214653 86 120 4.0 8.0 0.00 1.06 0.24 82 1015.3
20260901214129 86 83 1.0 4.0 0.00 1.06 0.24 83 1015.3
20260901213645 86 83 2.0 4.0 0.00 1.06 0.24 84 1015.2
20260901213202 85 83 2.0 7.0 0.00 1.06 0.24 85 1015.1
20260901212638 85 83 3.0 6.0 0.00 1.06 0.24 85 1015.0
20260901212135 85 125 2.0 9.0 0.00 1.06 0.24 86 1014.8
20260901211654 85 9 5.0 9.0 0.00 1.06 0.24 86 1014.6
20260901211129 84 39 2.0 9.0 0.00 1.06 0.24 87 1014.6
20260901210648 84 69 3.0 9.0 0.00 1.06 0.24 88 1014.6
20260901210246 84 98 4.0 9.0 0.00 1.06 0.24 89 1014.5
20260901205653 83 47 3.0 5.0 0.00 1.06 0.24 90 1014.5
20260901205210 83 36 2.0 5.0 0.01 1.06 0.24 91 1014.7
20260901204726 83 57 2.0 6.0 0.01 1.06 0.24 91 1014.7
20260901204154 83 46 3.0 6.0 0.01 1.06 0.24 91 1014.6
20260901203730 83 17 3.0 4.0 0.01 1.06 0.24 92 1014.5
20260901203144 83 90 1.0 6.0 0.01 1.06 0.24 93 1014.6
20260901202721 83 90 2.0 6.0 0.01 1.06 0.24 92 1014.7
20260901202156 82 86 1.0 4.0 0.01 1.06 0.24 93 1014.7
20260901201634 82 86 3.0 6.0 0.01 1.06 0.24 93 1014.7
20260901201132 82 78 3.0 6.0 0.01 1.06 0.24 93 1014.6
20260901200651 82 36 1.0 5.0 0.01 1.06 0.24 93 1014.7
20260901200227 81 17 2.0 5.0 0.01 1.06 0.24 93 1014.8
20260901200145 81 17 2.0 5.0 0.01 1.06 0.24 93 1014.8
20260901195634 81 16 2.0 4.0 0.01 1.06 0.24 94 1015.0
20260901195152 81 58 0.0 0.0 0.00 1.05 0.23 94 1015.0